Tyler, TX

12:46 PM CDT on April 29, 2017 (GMT -0500)
Tyler Pounds

Weather History for KTYR - January, 2014

Change the Weather History Date:

Sunday, January 5, 2014

  Actual Average Record
Temperature  
Mean Temperature 43 °F 46 °F  
Max Temperature 62 °F 56 °F 75 °F (1916)
Min Temperature 24 °F 37 °F 10 °F (1959)
Degree Days  
Heating Degree Days 22 19  
Month to date heating degree days 107 95  
Since 1 July heating degree days 1067 996  
Cooling Degree Days 0 0  
Month to date cooling degree days 0 0  
Year to date cooling degree days 0 0  
Moisture  
Dew Point 31 °F    
Average Humidity 65    
Maximum Humidity 85    
Minimum Humidity 44    
Precipitation  
Precipitation 0.02 in 0.12 in 2.98 in (1946)
Month to date precipitation 0.02 0.55  
Year to date precipitation 0.02 0.55  
Snow  
Snow 0.00 in - - ()
Month to date snowfall 0.0  
Since 1 July snowfall T  
Snow Depth 0.00 in    
Sea Level Pressure  
Sea Level Pressure 30.05 in    
Wind  
Wind Speed 16 mph (NW)    
Max Wind Speed 29 mph    
Max Gust Speed 36 mph    
Visibility 10 miles    
Events Rain    
T = Trace of Precipitation, MM = Missing Value Source: NWS Daily Summary

Daily Weather History Graph

Daily Weather History Graph

Search for Another Location

Airport or City:

Trip Planner

Search our weather history database for the weather conditions in past years. The results will help you decide how hot, cold, wet, or windy it might be!

Date:

Astronomy

Jan. 05, 2014 Rise Set
Actual Time 7:23 AM CST 5:30 PM CST
Civil Twilight 6:56 AM CST 5:57 PM CST
Nautical Twilight 6:26 AM CST 6:28 PM CST
Astronomical Twilight 5:56 AM CST 6:57 PM CST
Moon 10:23 AM CST (1/5) 10:39 PM CST (1/5)
Length of Visible Light 11h 00m
Length of Day
10h 07m
Waxing Crescent, 25% of the Moon is Illuminated
Jan 5
Waxing Crescent
Jan 7
First Quarter
Jan 15
Full
Jan 23
Last Quarter
Jan 30
New

Hourly Weather History & Observations

Time (CST) Temp. Windchill Dew Point Humidity Pressure Visibility Wind Dir Wind Speed Gust Speed Precip Events Conditions
12:53 AM 60.1 °F - 54.0 °F 80% 29.79 in 10.0 mi South 12.7 mph 20.7 mph N/A   Overcast
1:53 AM 61.0 °F - 55.0 °F 81% 29.78 in 10.0 mi South 11.5 mph 20.7 mph N/A   Overcast
2:53 AM 61.0 °F - 55.0 °F 81% 29.80 in 10.0 mi SW 9.2 mph - N/A   Overcast
3:53 AM 62.1 °F - 55.9 °F 80% 29.79 in 10.0 mi SW 13.8 mph - N/A   Overcast
4:04 AM 62.6 °F - 55.4 °F 77% 29.80 in 10.0 mi SSW 12.7 mph - N/A   Overcast
4:31 AM 60.8 °F - 55.4 °F 82% 29.79 in 10.0 mi SSW 15.0 mph 23.0 mph 0.00 in   Overcast
4:53 AM 61.0 °F - 57.0 °F 87% 29.78 in 9.0 mi SW 11.5 mph 20.7 mph 0.00 in Rain Light Rain
5:11 AM 46.4 °F 39.0 °F 46.4 °F 100% 29.82 in 5.0 mi WNW 19.6 mph 33.4 mph 0.02 in Rain Rain
5:23 AM 42.8 °F 34.0 °F 39.2 °F 87% 29.84 in 6.0 mi NW 20.7 mph 31.1 mph 0.02 in Rain Light Rain
5:41 AM 41.0 °F 30.9 °F 35.6 °F 81% 29.86 in 7.0 mi WNW 24.2 mph 33.4 mph 0.02 in Rain Light Rain
5:53 AM 39.9 °F 30.2 °F 36.0 °F 86% 29.87 in 9.0 mi NW 20.7 mph 27.6 mph 0.02 in Rain Light Rain
6:20 AM 39.2 °F 29.0 °F 33.8 °F 81% 29.90 in 10.0 mi NW 21.9 mph 32.2 mph 0.00 in   Overcast
6:53 AM 37.9 °F 29.2 °F 32.0 °F 79% 29.92 in 10.0 mi WNW 15.0 mph - 0.00 in   Overcast
7:48 AM 37.4 °F 29.3 °F 30.2 °F 75% 29.98 in 10.0 mi WNW 12.7 mph 29.9 mph N/A   Overcast
7:53 AM 37.0 °F 27.0 °F 28.9 °F 73% 29.98 in 10.0 mi NW 18.4 mph 23.0 mph N/A   Overcast
8:16 AM 35.6 °F 25.9 °F 28.4 °F 75% 30.01 in 10.0 mi NW 16.1 mph 24.2 mph N/A   Overcast
8:53 AM 34.0 °F 22.4 °F 28.0 °F 79% 30.04 in 10.0 mi NW 20.7 mph 27.6 mph N/A   Overcast
9:53 AM 33.1 °F 21.5 °F 26.1 °F 75% 30.09 in 10.0 mi NW 19.6 mph 27.6 mph N/A   Overcast
10:53 AM 33.1 °F 22.2 °F 24.1 °F 70% 30.12 in 10.0 mi NNW 17.3 mph 32.2 mph N/A   Overcast
11:53 AM 35.1 °F 24.5 °F 23.0 °F 61% 30.12 in 10.0 mi WNW 18.4 mph 28.8 mph N/A   Overcast
12:34 PM 37.4 °F 26.9 °F 23.0 °F 56% 30.11 in 10.0 mi NW 20.7 mph 34.5 mph N/A   Scattered Clouds
12:53 PM 35.1 °F 22.7 °F 21.0 °F 57% 30.12 in 10.0 mi NW 25.3 mph 35.7 mph N/A   Partly Cloudy
1:53 PM 37.0 °F 26.4 °F 19.9 °F 50% 30.12 in 10.0 mi NW 20.7 mph 27.6 mph N/A   Clear
2:53 PM 37.9 °F 28.2 °F 19.9 °F 48% 30.14 in 10.0 mi NW 18.4 mph 26.5 mph N/A   Clear
3:53 PM 39.0 °F 29.6 °F 19.0 °F 45% 30.18 in 10.0 mi NW 18.4 mph 27.6 mph N/A   Clear
4:53 PM 36.0 °F 25.3 °F 17.1 °F 46% 30.21 in 10.0 mi NNW 19.6 mph 26.5 mph N/A   Clear
5:53 PM 33.1 °F 22.6 °F 17.1 °F 52% 30.27 in 10.0 mi North 16.1 mph 21.9 mph N/A   Clear
6:53 PM 30.9 °F 19.8 °F 16.0 °F 54% 30.32 in 10.0 mi North 16.1 mph - N/A   Clear
7:53 PM 28.9 °F 18.2 °F 15.1 °F 56% 30.36 in 10.0 mi North 13.8 mph 24.2 mph N/A   Clear
8:53 PM 28.0 °F 18.1 °F 15.1 °F 58% 30.41 in 10.0 mi North 11.5 mph 23.0 mph N/A   Clear
9:53 PM 26.1 °F 14.0 °F 14.0 °F 60% 30.45 in 10.0 mi North 15.0 mph 24.2 mph N/A   Clear
10:53 PM 25.0 °F 13.1 °F 12.9 °F 60% 30.48 in 10.0 mi NNW 13.8 mph 24.2 mph N/A   Clear
11:53 PM 24.1 °F 12.0 °F 12.0 °F 60% 30.50 in 10.0 mi North 13.8 mph 19.6 mph N/A   Clear